This demonstration page uses our WeatherBlox Daily Observations layout. Learn more.

Left ArrowRight Arrow

39.92423, -83.80882

Hourly Observations for September 8, 2015

Temp ( °F °C ) Dew Point ( °F °C ) Humidity (%) Winds ( mph kmh ) Pressure ( in mb ) Visibility ( mi km ) Precip ( " mm )
12:56 am 00:56 Clear 75 23.8 68 20 79 79 S 6 9 30.04 1017 10 16.0934 0 0
1:56 am 01:56 Clear 71 21.6 67 19.4 87 87 Calm 30.04 1017 10 16.0934 0 0
2:56 am 02:56 Clear 69 20.5 67 19.4 93 93 Calm 30.04 1017 10 16.0934 0 0
3:56 am 03:56 Clear 68 20 67 19.4 96 96 S 3 6 30.04 1017 10 16.0934 0 0
4:56 am 04:56 Clear 68 20 66 18.8 93 93 Calm 30.04 1017 10 16.0934 0 0
5:56 am 05:56 Clear 67 19.4 65 18.3 93 93 Calm 30.03 1017 10 16.0934 0 0
6:56 am 06:56 Clear 65 18.3 65 18.3 100 100 S 3 6 30.03 1017 8 12.87472 0 0
7:56 am 07:56 Sunny 69 20.5 67 19.4 93 93 S 3 6 30.03 1017 10 16.0934 0 0
8:56 am 08:56 Sunny 74 23.3 71 21.6 90 90 SW 5 7 30.02 1017 10 16.0934 0 0
9:56 am 09:56 Sunny 78 25.5 71 21.6 79 79 WSW 6 9 30.04 1017 10 16.0934 0 0
10:56 am 10:56 Sunny 83 28.3 72 22.2 70 70 WSW 6 9 30.03 1017 10 16.0934 0 0
11:56 am 11:56 Sunny 85 29.4 72 22.2 65 65 WSW 7 11 30.01 1016 10 16.0934 0 0
12:56 pm 12:56 Sunny 87 30.5 70 21.1 57 57 SW 13 20 29.99 1016 10 16.0934 0 0
1:56 pm 13:56 Partly Cloudy 87 30.5 70 21.1 57 57 SW 10 17 29.97 1015 10 16.0934 0 0
2:56 pm 14:56 Mostly Sunny 89 31.6 69 20.5 52 52 S 9 15 29.96 1014 10 16.0934 0 0
3:56 pm 15:56 Sunny 90 32.2 69 20.5 50 50 SSW 7 11 29.93 1013 10 16.0934 0 0
4:56 pm 16:56 Sunny 89 31.6 68 20 50 50 S 8 13 29.9 1013 10 16.0934 0 0
5:56 pm 17:56 Sunny 88 31.1 67 19.4 50 50 SSW 8 13 29.9 1013 10 16.0934 0 0
6:56 pm 18:56 Sunny 85 29.4 68 20 57 57 SSW 6 9 29.9 1013 10 16.0934 0 0
7:56 pm 19:56 Sunny 80 26.6 69 20.5 69 69 S 3 6 29.91 1013 10 16.0934 0 0
8:56 pm 20:56 Clear 76 24.4 68 20 77 77 SSW 3 6 29.92 1013 10 16.0934 0 0
9:56 pm 21:56 Clear 76 24.4 68 20 77 77 S 5 7 29.92 1013 10 16.0934 0 0
10:56 pm 22:56 Clear 75 23.8 67 19.4 76 76 S 5 7 29.91 1013 10 16.0934 0 0
11:56 pm 23:56 Clear 74 23.3 67 19.4 79 79 S 5 7 29.9 1012 10 16.0934 0 0

Powered by AerisWeather